SITRO-AIS 25

Last updated on Mon Jun 22 2026 00:03:49 GMT+0000 (Coordinated Universal Time)

1 59066U 24039R 26172.53007453 .00002274 00000+0 17945-3 0 9992 2 59066 95.3907 238.0770 0142910 313.4318 45.5085 14.93532096125375
UTC large
Height (km)
Speed (km/s)
/
Latitude / Longitude
Inclination (degrees)
Orbital Period (minutes)
Azimuth
Elevation
Range (km)
Doppler Factor

Next 0 passes for location: London (51.5072 / 0.1276)

No passes found over London.
SITRO-AIS 25